UAL2866 KORD-KSFO

Flight info

Callsign UAL2866
Flight time N/A
Altitude 38000
Route OLINN OREOS OBENE OGALE LNK J60 HCT VOAXA Q136 RUMPS OAL INYOE DYAMD5
Aircraft A21N/M-SDE2E3FGHIRWXY/LB1

Departure

Time 2026-05-06 19:08
Airport Chicago O'Hare International Airport (KORD)

Arrival

Time N/A
Airport San Francisco International Airport (KSFO)
Time Latitude Longitude Altitude Speed Heading
2026-05-06 18:46 41.97977 -87.90942 671 ft 0 kts 276°
2026-05-06 19:01 41.97976 -87.90932 670 ft 3 kts 276°
2026-05-06 19:01 41.97974 -87.90907 669 ft 3 kts 276°
2026-05-06 19:02 41.97972 -87.90882 667 ft 3 kts 293°
2026-05-06 19:02 41.97962 -87.90861 666 ft 3 kts 323°
2026-05-06 19:02 41.97946 -87.90850 668 ft 1 kts 351°
2026-05-06 19:02 41.97946 -87.90849 668 ft 0 kts 352°
2026-05-06 19:04 41.97947 -87.90850 668 ft 0 kts 352°
2026-05-06 19:04 41.97952 -87.90851 666 ft 2 kts 352°
2026-05-06 19:04 41.97995 -87.90859 671 ft 11 kts 352°
2026-05-06 19:04 41.98078 -87.90865 671 ft 12 kts 358°
2026-05-06 19:05 41.98166 -87.90869 670 ft 13 kts 359°
2026-05-06 19:05 41.98253 -87.90843 669 ft 13 kts 39°
2026-05-06 19:05 41.98285 -87.90728 669 ft 14 kts 84°
2026-05-06 19:05 41.98291 -87.90596 668 ft 14 kts 89°
2026-05-06 19:06 41.98289 -87.90465 668 ft 13 kts 91°
2026-05-06 19:06 41.98289 -87.90342 669 ft 13 kts 90°
2026-05-06 19:06 41.98289 -87.90220 669 ft 13 kts 90°
2026-05-06 19:06 41.98289 -87.90097 669 ft 14 kts 89°
2026-05-06 19:07 41.98291 -87.89947 670 ft 18 kts 89°
2026-05-06 19:07 41.98291 -87.89831 670 ft 18 kts 91°
2026-05-06 19:07 41.98327 -87.89650 669 ft 15 kts
2026-05-06 19:07 41.98391 -87.89739 669 ft 15 kts 277°
2026-05-06 19:08 41.98392 -87.89939 669 ft 43 kts 270°
2026-05-06 19:08 41.98390 -87.90716 666 ft 119 kts 270°
2026-05-06 19:08 41.98395 -87.91976 1129 ft 135 kts 268°
2026-05-06 19:08 41.98383 -87.93256 1919 ft 140 kts 269°
2026-05-06 19:09 41.98388 -87.94587 2665 ft 145 kts 271°
2026-05-06 19:09 41.98396 -87.96047 3111 ft 167 kts 270°
2026-05-06 19:09 41.98371 -87.97144 3383 ft 182 kts 267°
2026-05-06 19:09 41.98202 -87.99556 3922 ft 206 kts 265°
2026-05-06 19:10 41.98036 -88.01592 4226 ft 233 kts 264°
2026-05-06 19:10 41.97848 -88.03841 5085 ft 246 kts 264°
2026-05-06 19:10 41.97721 -88.05360 5850 ft 249 kts 264°
2026-05-06 19:10 41.97527 -88.07683 6934 ft 252 kts 264°
2026-05-06 19:11 41.97331 -88.10041 7977 ft 256 kts 264°
2026-05-06 19:11 41.97133 -88.12435 9015 ft 260 kts 264°
2026-05-06 19:11 41.96933 -88.14865 10046 ft 263 kts 264°
2026-05-06 19:11 41.96724 -88.17393 10604 ft 283 kts 264°
2026-05-06 19:12 41.96501 -88.20089 11240 ft 294 kts 264°
2026-05-06 19:12 41.96273 -88.22869 12214 ft 295 kts 264°
2026-05-06 19:12 41.96051 -88.25570 13224 ft 295 kts 263°
2026-05-06 19:12 41.95825 -88.28305 14215 ft 295 kts 263°
2026-05-06 19:13 41.95596 -88.31042 15086 ft 295 kts 263°
2026-05-06 19:13 41.95365 -88.33791 15939 ft 297 kts 263°
2026-05-06 19:13 41.95132 -88.36560 16781 ft 299 kts 263°
2026-05-06 19:13 41.94897 -88.39341 17618 ft 301 kts 263°
2026-05-06 19:14 41.94660 -88.42148 18414 ft 303 kts 263°
2026-05-06 19:14 41.94420 -88.44970 19112 ft 305 kts 262°
2026-05-06 19:14 41.94179 -88.47807 19836 ft 306 kts 262°
2026-05-06 19:14 41.93937 -88.50655 20563 ft 307 kts 262°
2026-05-06 19:15 41.93696 -88.53511 21260 ft 309 kts 262°